Weather History for KALW - November, 2012

Change the Weather History Date:

Sunday, November 18, 2012

  Actual Average Record
Temperature  
Mean Temperature 48 °F -  
Max Temperature 55 °F 47 °F 64 °F (1965)
Min Temperature 42 °F 35 °F 16 °F (1955)
Degree Days  
Heating Degree Days 16    
Moisture  
Dew Point 32 °F    
Average Humidity 52    
Maximum Humidity 76    
Minimum Humidity 40    
Precipitation  
Precipitation 0.01 in - - ()
Sea Level Pressure  
Sea Level Pressure 29.88 in    
Wind  
Wind Speed 13 mph (SSE)    
Max Wind Speed 34 mph    
Max Gust Speed 56 mph    
Visibility 10 miles    
Events Rain    
Averages and records for this station are not official NWS values.
T = Trace of Precipitation, MM = Missing Value Source: NWS Daily Summary

Daily Weather History Graph

Daily Weather History Graph

Search for Another Location

Airport or City:

Trip Planner

Search our weather history database for the weather conditions in past years. The results will help you decide how hot, cold, wet, or windy it might be!

Date:

Astronomy

Nov. 18, 2012 Rise Set
Actual Time 6:58 AM PST 4:17 PM PST
Civil Twilight 6:26 AM PST 4:50 PM PST
Nautical Twilight 5:49 AM PST 5:27 PM PST
Astronomical Twilight 5:13 AM PST 6:02 PM PST
Moon 11:25 AM PST (11/18) 9:47 PM PST (11/18)
Length of Visible Light 10h 24m
Length of Day
9h 18m
Waxing Crescent, 31% of the Moon is Illuminated
Nov 18
Waxing Crescent
Nov 20
First Quarter
Nov 28
Full
Dec 6
Last Quarter
Dec 13
New

Hourly Weather History & Observations

Time (PST) Temp. Windchill Dew Point Humidity Pressure Visibility Wind Dir Wind Speed Gust Speed Precip Events Conditions
12:53 AM 43.0 °F 36.4 °F 36.0 °F 76% 29.84 in 10.0 mi South 12.7 mph - N/A   Clear
1:53 AM 42.1 °F 37.1 °F 34.0 °F 73% 29.86 in 10.0 mi South 8.1 mph - N/A   Partly Cloudy
2:53 AM 44.1 °F 37.4 °F 33.1 °F 65% 29.87 in 10.0 mi SSE 13.8 mph - N/A   Clear
3:53 AM 44.1 °F 39.0 °F 30.9 °F 60% 29.89 in 10.0 mi SSE 9.2 mph - N/A   Partly Cloudy
4:53 AM 44.1 °F 41.5 °F 30.9 °F 60% 29.92 in 10.0 mi SSE 4.6 mph - N/A   Scattered Clouds
5:53 AM 43.0 °F 38.8 °F 30.9 °F 62% 29.92 in 10.0 mi South 6.9 mph - N/A   Mostly Cloudy
6:53 AM 46.0 °F 40.6 °F 30.9 °F 56% 29.92 in 10.0 mi SSE 11.5 mph - N/A   Clear
7:53 AM 46.0 °F 40.6 °F 30.9 °F 56% 29.93 in 10.0 mi SSE 11.5 mph - N/A   Scattered Clouds
8:53 AM 48.9 °F - 30.0 °F 48% 29.92 in 10.0 mi South 12.7 mph - N/A   Clear
9:53 AM 50.0 °F - 30.9 °F 48% 29.93 in 10.0 mi SSE 12.7 mph - N/A   Overcast
10:53 AM 52.0 °F - 30.0 °F 43% 29.93 in 10.0 mi SSE 16.1 mph - N/A   Overcast
11:53 AM 55.0 °F - 32.0 °F 42% 29.90 in 10.0 mi South 13.8 mph - N/A   Mostly Cloudy
12:53 PM 55.0 °F - 30.9 °F 40% 29.88 in 10.0 mi SSE 17.3 mph - N/A   Mostly Cloudy
1:53 PM 55.9 °F - 32.0 °F 40% 29.87 in 10.0 mi South 16.1 mph - N/A   Clear
2:53 PM 54.0 °F - 32.0 °F 43% 29.86 in 10.0 mi South 11.5 mph - N/A   Mostly Cloudy
3:53 PM 53.1 °F - 30.0 °F 41% 29.87 in 10.0 mi SSE 17.3 mph - N/A   Scattered Clouds
4:53 PM 53.1 °F - 30.0 °F 41% 29.87 in 10.0 mi SSE 15.0 mph - N/A   Partly Cloudy
5:53 PM 53.1 °F - 30.0 °F 41% 29.85 in 10.0 mi SSE 15.0 mph 26.5 mph N/A   Clear
6:53 PM 52.0 °F - 28.9 °F 41% 29.85 in 10.0 mi SSE 18.4 mph 28.8 mph N/A   Clear
7:53 PM 52.0 °F - 28.9 °F 41% 29.83 in 10.0 mi SSE 17.3 mph 24.2 mph N/A   Scattered Clouds
8:53 PM 53.1 °F - 33.1 °F 47% 29.85 in 10.0 mi South 34.5 mph 56.4 mph 0.00 in Rain Light Rain
9:53 PM 48.9 °F - 37.9 °F 66% 29.86 in 10.0 mi South 16.1 mph 24.2 mph 0.01 in   Overcast
10:53 PM 51.1 °F - 37.0 °F 59% 29.83 in 10.0 mi SSE 23.0 mph 31.1 mph N/A   Overcast
11:53 PM 53.1 °F - 36.0 °F 52% 29.80 in 10.0 mi SSE 28.8 mph 35.7 mph N/A   Overcast